Location: College Park
(38.9810°N, 76.9370°W)
Time: 15:12:14
(UTC-05:00)

OTV 5 (USA 277) - Pass Details

Date: 05 January 2018
Orbit: 404 x 417 km, 43.0° (Epoch: 07 September)

Event Time Altitude Azimuth Distance (km) Brightness Sun altitude
Exits shadow 06:46:23 11° 295° (WNW) 1,418 ? -7.9°
Maximum altitude 06:49:29 49° 12° (NNE) 530 ? -7.4°
Drops below altitude 10° 06:52:41 10° 88° (E) 1,456 ? -6.8°
Sets 06:54:50 0° 94° (E) 2,316 ? -6.4°
